GJZ 04 (62293 NORAD) Tracking and Keplerian Element Data

This shows tracking and keplerian element data for the satellite.

Feedback or suggestion? Click here.




ElementValue
Catalog62293
NameGJZ 04
Epoch Orbit741
Epoch Day35.15485057
Epoch Year2025
RAAN338.3781
Inclination59.915
Eccentricity0.0013611
Argument of Perigee344.2599
Mean Anonmoly15.7984
Mean Motion13.75108455
Decay Rate1.1E-06
L11 62293U 24238D 25035.15485057 .00000110 00000+0 23904-3 0 9993
L22 62293 59.9150 338.3781 0013611 344.2599 15.7984 13.75108455 7419



Live tracking and technical data element details for GJZ 04 (NORAD 62293). GJZ 04 can be tracked NOW for your location showing map with azimuth and elevation plus other details from your city location.







IsCatalogInMostPopularTable: catalog: 62293, numindb: 10
Update: records affected: 1



GetName: 62293 GJZ 04

Hit Count: updated at: Mon, 19 May 2025 02:19:00 GMT